Theta_e
340 340 341 348 350 349 350 350 350 350 350 350 350 350 350 349 349 348 348 348 347 346 347 346 344 344 344 344 343 343 342 342 341 341 341 342 342 342 343 342 341 340 339 338 340 340 341 340 340 340 341 342 341 342 342 343 342 340 339 341 341 341 341 341 340 339 340 341 342 342 343 344 345 346 346 346 346 345 343 344 343 340 340 342 346
340 341 340 344 350 349 350 350 350 350 349 349 350 350 350 349 349 348 348 347 346 346 345 345 344 344 343 343 342 342 341 341 342 341 343 347 347 346 345 341 340 340 340 340 339 339 340 340 341 342 342 342 342 343 342 341 340 338 338 339 339 339 339 340 340 339 339 339 339 339 340 341 342 344 345 346 346 345 343 343 343 340 339 344 345
341 342 341 344 349 350 350 349 350 350 350 350 350 350 349 349 348 348 347 346 346 345 345 344 343 343 343 343 343 342 341 341 340 340 347 347 347 345 344 342 341 339 339 338 338 339 339 342 341 342 342 342 343 342 340 339 338 338 336 337 338 339 338 338 339 339 338 338 338 338 339 339 339 340 342 344 344 344 343 343 343 342 339 344 343
341 343 342 345 347 348 350 349 349 350 349 349 349 349 349 348 348 348 347 346 345 345 344 343 343 344 343 342 342 341 340 340 339 343 346 347 346 343 342 341 340 339 339 338 339 339 341 341 341 341 342 342 343 341 339 338 338 338 336 337 338 338 338 338 337 337 337 337 335 335 332 329 333 338 339 340 341 341 340 341 341 342 343 343 343
342 343 343 344 345 347 349 349 350 349 349 350 348 348 348 348 347 347 347 346 345 345 344 342 342 343 343 342 342 341 341 339 341 346 346 347 346 343 341 340 339 339 338 339 339 339 341 341 341 342 342 343 342 340 339 339 338 338 336 337 338 337 337 337 337 336 337 336 335 332 326 329 331 336 337 339 340 339 338 338 338 339 338 339 341
342 343 342 343 343 345 348 349 350 349 349 349 348 347 348 347 347 347 346 345 344 344 344 343 342 343 343 342 342 340 340 341 345 346 346 346 345 344 344 344 339 338 338 339 339 341 340 340 341 343 343 343 342 339 338 337 337 337 336 337 337 336 336 336 335 334 334 333 332 327 327 328 330 333 338 338 338 337 337 338 338 338 337 338 338
342 343 342 342 343 344 346 349 349 349 349 348 348 348 347 347 347 346 346 346 345 344 343 342 342 342 342 342 341 340 339 340 339 344 345 346 344 342 341 341 340 339 338 338 338 339 340 340 341 342 343 342 342 340 338 337 337 337 339 338 338 338 338 338 337 336 333 328 324 325 327 328 329 331 337 338 339 340 338 339 341 341 343 343 343
342 342 342 342 342 344 346 349 349 349 349 348 348 347 347 346 346 346 346 345 344 343 342 342 343 342 342 341 340 339 339 339 339 345 346 345 344 344 343 340 338 337 337 337 338 339 339 340 341 341 342 342 341 341 341 341 341 341 341 340 340 339 338 337 336 336 335 330 328 327 327 327 329 333 339 341 341 342 341 341 341 342 342 342 339
341 342 342 342 342 343 346 347 349 349 349 348 348 347 347 346 346 346 347 345 344 343 342 342 342 341 341 340 340 339 338 343 345 345 344 343 342 342 341 340 337 337 337 337 338 339 339 340 341 340 341 341 341 341 341 342 342 341 341 340 339 339 338 336 335 334 332 331 331 331 331 332 334 334 340 341 342 342 341 339 339 341 340 338 338
341 342 342 341 342 342 345 347 349 349 349 349 348 348 347 346 346 347 346 345 343 343 341 341 341 341 341 340 339 337 343 343 345 345 345 344 343 343 342 341 338 337 337 337 336 338 340 339 339 340 341 341 340 340 341 341 341 341 341 340 339 338 337 336 334 333 330 330 331 333 334 336 333 334 338 341 340 341 338 335 337 337 336 337 337
341 341 341 341 341 342 347 349 349 349 349 348 348 348 347 346 346 346 346 345 343 342 342 341 341 341 341 340 339 338 337 341 342 342 342 342 342 342 342 340 338 337 336 336 337 338 339 340 339 339 340 340 340 340 340 340 340 340 339 338 338 337 336 334 332 329 329 330 330 332 335 337 333 334 339 339 340 339 336 336 336 337 337 338 338
340 341 341 341 344 342 347 347 348 349 349 348 348 348 347 347 346 346 345 345 344 343 342 341 341 340 340 340 339 338 337 339 340 340 341 341 341 341 340 340 338 336 336 337 336 337 338 339 339 339 339 339 339 339 339 338 339 338 338 337 336 335 334 332 329 328 328 329 330 331 332 333 333 334 337 339 340 338 336 336 336 337 335 338 337
340 341 341 342 342 342 344 347 346 348 349 348 348 348 347 347 346 346 345 344 343 342 341 341 341 339 339 340 339 337 337 338 338 339 340 340 340 340 340 339 337 336 336 336 335 337 338 339 338 338 339 337 336 337 337 337 336 336 335 334 334 333 332 330 328 328 328 328 329 330 330 331 332 337 338 337 338 337 336 337 336 334 337 337 336
340 340 341 342 342 344 340 343 344 347 348 348 348 347 347 347 346 346 345 344 343 341 341 342 341 341 340 339 338 338 336 337 339 339 339 339 339 338 337 336 334 334 334 334 335 335 337 338 337 337 337 337 336 336 335 335 334 334 333 332 331 330 328 327 327 324 325 328 330 330 330 332 331 335 336 337 338 337 337 336 335 335 335 335 334
340 341 343 343 342 341 341 339 343 343 345 347 347 347 347 347 346 346 345 344 343 341 341 341 341 341 339 339 338 338 337 336 336 335 336 336 336 336 335 335 334 334 334 333 333 334 335 336 336 337 336 336 336 335 335 335 334 334 333 332 330 329 326 322 322 322 323 326 327 329 330 331 336 336 335 338 337 337 336 335 335 334 334 334 333
341 342 342 343 342 340 341 341 338 339 342 344 345 345 346 347 346 346 345 345 343 341 340 340 340 340 340 339 338 337 337 337 336 336 336 336 335 335 334 334 333 333 334 332 332 334 335 335 335 335 334 335 335 335 334 334 333 332 331 330 328 327 325 323 321 321 321 322 325 327 328 331 335 336 336 337 336 335 334 333 333 332 332 331 331
340 341 342 341 341 341 340 340 337 335 335 337 340 341 344 345 346 346 345 345 343 341 340 340 340 340 340 339 338 338 338 336 336 336 335 335 335 334 333 333 333 334 334 333 332 334 334 334 334 334 334 334 334 334 333 332 331 330 329 328 327 326 323 322 321 320 321 322 323 325 327 329 333 335 335 335 335 335 333 332 332 331 330 330 329
339 340 340 341 340 340 339 339 336 337 338 335 334 338 341 344 344 343 343 343 343 342 341 340 340 339 339 338 338 338 338 337 336 335 335 334 334 334 333 333 333 333 333 331 331 333 332 332 333 333 333 333 333 332 332 331 329 328 326 325 324 324 323 322 320 320 322 324 323 326 328 332 333 333 335 333 333 332 331 331 330 330 329 328 327
338 339 340 340 340 339 339 338 338 337 336 336 337 337 336 340 341 341 341 342 342 340 340 338 338 338 337 336 335 333 332 334 335 335 334 333 332 332 333 333 333 332 331 331 331 332 331 331 332 332 332 331 331 330 329 328 327 326 324 322 320 319 319 319 319 321 322 322 323 325 328 332 333 333 333 333 332 331 330 329 328 328 327 326 325
336 337 338 340 340 339 337 337 337 336 335 336 337 337 334 333 337 338 338 339 339 338 336 334 332 332 331 330 328 327 326 326 326 328 330 333 331 329 332 332 332 332 331 331 332 330 330 330 330 330 330 329 329 328 326 326 324 323 321 320 318 316 315 316 318 320 322 324 325 326 329 331 333 332 334 333 332 330 329 328 327 327 327 326 324
336 336 337 338 339 338 337 337 337 337 336 336 337 337 335 331 332 332 333 336 336 334 332 326 324 323 323 322 323 325 324 325 324 323 321 323 323 326 330 332 331 331 330 330 330 328 328 327 327 326 325 324 322 322 322 323 322 320 318 316 314 312 312 314 316 319 322 323 325 327 331 331 331 334 333 332 332 330 329 327 326 324 324 324 324
335 335 336 337 338 338 338 338 338 337 336 336 337 337 334 334 336 334 334 333 330 326 326 326 326 323 320 323 324 323 323 322 322 323 321 322 323 324 328 331 331 330 330 329 329 327 326 326 325 324 322 319 315 311 313 316 317 317 315 313 311 310 310 312 314 317 319 322 325 328 331 333 332 334 333 331 331 329 326 322 322 325 325 323 321
334 335 335 336 336 337 338 338 338 338 336 336 336 336 336 337 336 335 334 329 330 328 327 325 323 323 323 323 322 322 322 321 321 321 321 320 322 323 327 328 330 329 328 327 327 325 324 323 322 320 318 314 309 308 308 308 309 312 310 309 308 308 309 310 311 314 317 322 326 328 329 331 332 333 331 331 328 327 326 325 324 323 323 322 322
335 335 335 336 336 336 337 338 338 338 336 335 335 335 337 337 337 337 335 333 331 329 327 325 323 323 323 322 322 321 321 320 321 321 320 320 321 322 324 325 327 326 325 323 321 321 321 320 318 315 311 307 306 307 307 307 307 307 307 307 307 307 307 308 309 311 314 317 325 327 329 331 331 330 330 329 328 326 324 324 323 322 321 320 320
335 335 334 336 337 337 336 337 338 338 337 336 336 335 337 337 337 337 336 333 333 330 327 325 323 323 322 322 321 320 320 319 319 318 318 319 319 319 321 321 320 318 316 309 307 306 305 304 305 305 304 305 305 305 306 306 306 306 306 305 305 306 306 307 308 309 310 314 323 325 327 329 329 329 330 329 327 326 324 323 322 321 319 319 318
330 332 334 335 336 337 337 338 339 339 338 338 337 335 336 336 336 337 336 335 335 332 328 325 323 323 322 322 320 319 318 318 318 317 316 317 317 315 315 315 313 313 311 307 304 303 302 303 303 303 303 303 303 303 304 304 304 304 304 304 304 304 305 305 306 306 307 311 318 323 325 327 327 327 327 328 327 326 324 322 321 320 319 318 317
330 332 333 334 335 337 337 337 338 339 339 339 338 335 336 337 337 337 336 335 336 333 330 326 324 323 323 322 319 318 317 317 317 316 315 315 314 314 312 312 312 309 308 305 303 302 302 302 302 302 302 302 302 302 303 302 303 303 303 303 303 303 303 303 303 303 304 308 313 322 324 325 325 327 327 326 326 324 323 322 321 320 319 318 317
329 331 331 333 332 334 336 336 337 338 338 339 339 337 337 336 337 335 336 334 335 335 333 328 324 324 325 322 319 318 317 316 316 315 314 313 313 312 311 310 309 307 307 304 302 301 301 302 302 301 301 301 302 302 302 302 302 302 301 301 302 302 301 302 301 301 303 304 307 315 322 323 325 326 326 326 326 325 324 322 322 321 319 318 317
327 328 328 329 331 332 334 335 336 336 338 339 338 338 337 336 335 335 336 332 336 335 335 332 326 325 327 323 319 317 317 316 315 314 313 312 311 310 310 309 307 306 305 303 302 301 301 301 301 301 301 300 301 300 300 299 299 300 300 300 300 301 301 300 300 300 300 301 302 308 317 322 323 324 324 325 325 324 323 320 318 320 319 318 316
326 327 326 327 329 331 331 333 334 335 337 338 338 337 337 336 335 335 336 333 336 336 336 334 329 327 329 325 321 318 317 316 315 314 313 311 310 309 308 307 306 306 304 302 301 301 300 300 300 300 300 300 299 299 300 298 297 297 298 298 298 299 299 299 298 297 297 297 298 302 309 317 321 322 323 322 323 323 322 320 319 318 318 317 316
324 324 326 327 327 329 330 331 332 332 335 336 336 336 336 336 334 335 335 334 336 336 335 335 333 330 331 327 324 321 319 318 316 315 314 313 311 309 307 306 305 306 304 302 301 300 299 299 299 299 299 299 299 299 298 296 295 294 295 296 296 297 296 296 296 295 295 294 295 297 301 308 315 320 321 321 322 322 320 319 319 318 317 316 316
323 323 325 327 326 328 330 331 330 330 332 334 333 335 335 335 333 334 334 334 334 335 334 334 332 333 332 329 327 324 321 319 317 316 315 313 311 309 308 305 304 306 304 303 301 299 298 298 298 298 298 298 298 298 297 295 294 293 293 293 294 294 294 294 294 293 292 292 293 294 296 299 306 312 318 319 318 318 317 318 318 317 317 317 316
325 325 324 324 326 327 329 330 330 328 331 333 333 333 333 333 332 333 334 333 333 333 333 333 334 335 334 332 329 326 322 320 318 316 314 314 311 309 308 306 307 307 304 302 300 298 298 297 297 296 296 296 296 295 296 294 293 292 292 292 292 292 292 292 292 292 291 290 290 291 292 294 296 302 307 314 316 315 316 316 316 315 316 315 315
323 324 322 324 326 327 328 329 329 328 328 332 331 331 331 332 331 333 332 333 333 333 333 333 333 334 334 334 331 328 324 323 319 317 316 314 311 309 307 306 309 307 305 301 299 298 297 297 295 295 296 295 295 294 294 292 292 292 291 292 291 291 291 290 290 290 290 290 289 289 290 291 292 294 297 304 310 314 313 313 314 313 314 315 313
319 320 322 324 324 326 327 328 326 328 326 328 327 329 328 330 330 331 332 333 333 333 333 332 332 333 333 334 333 331 326 325 322 318 316 316 312 309 308 307 310 307 304 302 300 298 297 296 296 295 294 294 294 294 293 293 293 291 291 291 290 290 290 289 289 289 289 288 288 288 289 289 290 291 292 293 299 305 313 312 311 312 312 312 312
320 322 322 322 323 325 325 326 325 326 327 327 327 326 326 327 329 326 331 332 332 333 333 332 331 332 332 333 333 331 329 327 326 321 318 317 313 310 309 310 310 307 304 302 300 298 297 297 296 295 293 292 293 292 292 291 291 290 290 290 290 290 288 288 288 287 287 287 286 287 287 288 288 290 291 290 292 298 306 311 311 310 311 311 311
321 320 321 321 322 323 323 325 324 325 326 326 325 322 321 322 325 326 328 329 331 331 332 332 331 330 331 333 333 332 331 329 327 325 321 319 315 311 312 311 309 307 304 302 300 299 297 297 295 295 295 292 292 291 291 291 290 290 289 289 289 288 288 287 286 286 286 285 284 285 286 286 288 289 286 287 288 290 298 305 308 310 310 309 309
319 320 321 322 321 322 322 324 324 325 326 325 325 322 320 319 319 321 322 327 328 329 329 329 330 330 331 331 332 331 330 331 328 328 324 321 317 315 314 312 309 306 304 302 300 299 298 297 295 295 294 293 291 291 290 290 290 289 288 288 288 288 287 287 287 288 284 284 284 284 283 284 284 284 285 285 285 287 288 294 300 303 306 308 308
319 319 320 321 321 320 320 320 321 322 323 323 321 319 317 317 315 315 315 321 323 324 325 326 327 328 329 330 330 331 328 331 330 328 326 322 318 317 314 311 309 306 304 302 300 299 298 296 295 294 294 293 292 291 290 290 289 289 288 288 288 287 287 287 286 285 284 284 286 286 284 283 283 283 283 283 284 285 286 286 287 289 293 303 305
317 319 318 319 320 319 318 319 319 321 319 318 317 315 314 315 315 310 310 312 316 317 319 323 323 325 325 327 329 330 329 329 330 329 326 321 319 316 313 311 308 306 304 302 300 298 297 296 295 294 293 292 292 291 290 289 288 288 288 287 287 286 286 286 285 284 284 283 283 283 283 282 282 282 282 282 282 283 283 284 286 285 285 292 299
314 316 317 318 319 319 317 317 317 317 316 316 315 315 315 312 312 314 315 312 313 314 317 317 319 320 320 322 325 327 328 328 327 328 325 319 319 316 313 310 309 306 304 302 300 299 298 297 296 295 292 290 290 290 290 289 287 286 287 286 286 287 288 285 283 283 283 283 282 282 282 282 281 281 281 282 282 282 282 282 282 283 283 283 287
311 315 316 317 318 317 316 317 314 314 316 317 316 315 317 317 318 317 312 310 309 311 315 315 317 316 316 317 319 320 324 326 325 326 323 321 319 316 313 310 308 307 306 304 301 298 297 296 295 293 293 291 289 289 289 288 286 284 283 283 285 286 287 285 284 283 283 282 282 282 282 281 281 281 281 281 281 281 281 281 282 282 282 282 283
311 313 316 316 315 315 315 315 313 314 314 314 314 315 311 310 312 306 310 305 305 306 307 305 307 312 313 315 316 318 318 320 323 323 323 321 319 316 313 311 309 307 305 303 301 299 297 295 294 293 291 292 291 291 289 290 285 286 285 283 281 281 285 283 283 284 284 283 282 282 282 281 281 280 280 281 281 281 281 281 280 281 281 282 282
308 309 312 314 315 314 313 313 312 312 312 311 311 308 308 302 301 303 304 304 305 301 302 302 305 308 312 313 313 314 314 315 318 321 321 321 318 316 313 311 310 308 306 302 300 298 297 295 294 294 292 289 289 288 290 290 288 285 282 283 281 282 278 279 280 283 283 283 282 282 282 281 281 280 280 280 281 281 281 281 280 280 280 280 280
307 309 311 313 315 313 312 312 311 310 309 308 308 305 305 302 301 302 301 301 301 302 303 303 304 307 310 311 313 312 312 312 312 316 318 319 318 316 313 311 310 308 307 304 301 299 297 296 295 294 293 291 288 289 289 290 288 290 286 281 280 280 279 280 282 282 284 283 282 281 282 281 280 281 280 280 279 280 280 279 279 279 279 279 280
307 308 310 312 312 311 309 308 308 308 308 307 307 307 307 306 303 304 303 300 303 300 305 308 305 307 310 310 310 310 312 313 311 312 315 317 317 316 314 311 310 308 307 305 303 300 298 296 296 295 293 293 290 288 287 289 288 289 291 294 286 284 280 281 282 279 283 282 281 282 282 280 280 281 280 280 280 280 281 280 278 279 278 278 279
306 304 305 307 307 307 308 308 308 308 307 306 306 307 306 306 306 307 306 306 306 303 299 300 304 303 305 306 309 308 309 311 311 312 313 315 318 317 314 312 311 309 307 306 303 301 299 298 297 296 295 293 291 288 287 287 288 289 291 293 293 290 286 283 282 281 278 281 282 282 282 280 280 280 280 280 279 279 280 280 279 279 278 278 278
302 301 303 304 306 306 306 307 307 306 306 306 306 307 307 305 304 304 304 304 304 305 301 302 301 302 302 302 304 306 307 308 310 310 311 313 315 317 316 314 312 310 307 307 305 303 301 299 298 297 296 294 292 290 288 289 286 287 289 289 290 288 287 286 284 283 280 278 280 282 282 281 280 280 281 280 280 279 280 279 278 278 277 277 277
301 303 304 305 305 305 305 305 305 304 304 304 305 305 306 306 305 304 303 303 303 302 299 299 300 300 300 299 303 304 305 306 307 308 309 312 312 315 315 314 313 311 307 308 306 304 301 299 298 297 297 295 294 293 291 289 289 288 287 288 286 285 286 285 285 283 281 279 279 280 280 280 279 280 281 280 280 280 280 279 279 278 280 279 278
299 300 300 301 302 303 304 304 304 303 303 304 305 305 305 304 304 303 303 302 299 297 297 298 298 299 300 300 302 303 303 303 304 306 307 310 311 312 313 313 312 310 306 307 306 303 301 299 298 297 297 295 295 294 292 292 291 291 290 289 285 284 283 283 283 282 282 283 280 279 280 278 278 279 280 280 280 280 279 279 280 279 279 278 278
297 298 299 300 301 303 303 303 303 303 303 304 304 304 304 303 304 303 303 302 300 299 297 297 297 297 301 302 302 302 302 302 302 303 305 306 308 310 312 312 311 308 306 307 305 303 301 300 298 298 297 296 295 295 295 294 293 294 293 290 287 285 284 283 282 282 282 280 280 280 280 280 280 278 280 280 280 279 279 279 279 278 277 278 278
Wind_Speed
4 4 2 4 5 8 10 11 11 12 13 13 13 14 14 15 15 16 15 15 15 14 15 15 15 16 15 16 16 15 14 15 16 15 14 14 14 16 18 19 20 19 18 18 19 19 19 19 20 20 19 19 18 18 18 19 21 20 20 20 20 20 20 20 21 20 18 19 22 21 20 20 21 22 22 23 23 21 17 17 16 14 12 18 24
8 4 3 3 7 9 10 10 11 11 12 12 13 13 14 15 15 16 16 15 14 15 14 14 14 15 16 16 16 16 15 15 15 14 15 18 21 21 20 20 19 19 19 19 19 19 19 20 20 19 19 19 19 19 19 20 21 21 19 19 20 20 19 19 18 18 19 19 19 19 20 21 21 21 22 22 23 23 19 19 18 11 11 22 24
6 4 3 3 8 8 9 11 11 11 12 12 12 12 13 13 14 15 15 15 15 14 14 14 14 14 16 16 16 15 15 16 15 14 18 18 19 20 21 20 19 19 19 19 19 19 21 20 20 19 19 19 19 19 20 20 21 21 19 19 19 19 18 18 17 16 16 17 18 18 17 21 21 20 20 20 21 23 19 21 21 18 15 24 22
8 5 3 5 7 7 8 10 11 10 11 12 11 12 13 14 14 15 15 14 14 14 13 14 14 15 15 16 15 15 15 15 15 16 18 19 19 20 20 20 20 19 19 19 20 21 21 20 19 19 19 19 18 19 20 20 21 20 19 19 19 19 18 17 16 15 14 14 15 9 7 8 13 20 20 21 22 22 19 21 23 23 24 23 24
9 6 4 5 5 7 9 10 10 11 11 11 11 12 13 14 14 15 15 14 14 13 14 14 14 14 15 15 15 15 14 14 15 17 17 18 19 20 20 20 20 19 19 20 20 21 21 20 20 19 19 19 20 20 20 19 21 20 19 19 18 18 18 17 16 15 13 12 11 7 5 7 9 20 21 21 22 20 19 22 22 22 22 24 23
10 6 5 5 5 6 9 10 11 11 11 11 11 11 12 13 14 14 14 14 14 14 13 14 14 14 14 14 15 14 13 14 17 16 17 18 18 19 21 21 20 18 20 20 21 21 20 19 19 19 19 19 19 19 19 20 20 20 20 19 18 18 16 16 15 14 12 11 9 6 6 5 7 11 22 21 20 18 20 21 21 21 21 23 22
10 6 5 5 5 7 9 11 12 12 12 12 12 12 12 12 13 13 13 14 14 13 13 13 13 14 13 14 14 14 14 15 15 17 18 18 18 19 19 21 21 18 19 20 21 20 19 19 19 19 19 20 20 20 21 21 21 20 19 18 18 17 17 15 14 13 11 7 6 6 6 8 7 7 21 20 21 22 22 22 21 22 22 22 22
7 5 5 4 5 8 10 11 12 12 13 12 12 12 12 12 12 13 13 13 13 13 13 13 13 13 13 14 14 14 15 15 15 17 18 18 19 19 20 20 19 18 19 19 20 20 19 19 19 19 18 19 21 21 21 20 20 20 20 20 19 17 16 15 14 12 11 6 5 5 6 5 6 9 20 21 22 23 23 22 22 22 22 23 18
8 6 6 5 4 9 10 10 12 13 13 13 13 13 12 13 13 13 13 13 13 13 13 13 13 13 13 13 13 14 15 16 16 16 17 18 17 18 20 21 19 18 19 19 19 19 19 19 19 19 19 20 19 20 20 20 21 21 20 19 18 17 17 15 13 11 7 7 7 7 8 9 9 10 19 22 23 23 21 18 20 24 24 21 21
7 6 6 5 5 8 10 11 13 13 14 14 13 13 13 12 13 13 13 13 12 13 13 13 13 13 13 13 13 13 16 16 16 16 17 17 18 18 20 21 20 18 19 18 20 19 19 19 20 20 20 20 20 20 20 20 21 21 20 19 18 18 17 15 14 10 8 8 8 9 9 11 8 10 19 24 25 25 21 19 17 18 18 24 26
8 7 6 5 6 9 10 11 11 12 14 13 14 14 13 13 13 13 13 13 12 12 12 13 12 13 13 13 12 13 14 16 16 16 16 17 18 18 20 21 20 18 18 19 19 19 19 19 20 20 20 20 20 21 21 21 21 20 20 19 18 18 17 15 12 7 8 8 8 7 12 15 9 10 21 24 25 25 22 23 23 24 25 26 26
8 7 6 6 8 10 10 11 11 12 12 13 14 14 13 12 13 13 13 13 12 12 12 12 12 12 13 12 12 12 14 15 16 15 16 16 17 18 19 19 19 17 18 18 18 18 18 19 20 21 21 20 20 20 21 21 20 20 20 19 18 16 16 14 8 8 7 8 8 9 7 8 10 15 24 23 26 24 25 25 25 26 25 26 26
8 7 7 6 6 10 11 11 11 11 12 13 13 14 13 13 12 13 13 13 13 12 12 12 12 12 12 12 12 12 13 14 14 15 16 16 16 17 18 19 18 17 17 18 19 18 18 19 19 20 20 20 19 19 19 19 19 19 18 17 16 16 14 11 7 7 7 6 6 7 8 9 10 20 23 24 25 24 25 26 25 25 27 27 26
9 7 6 7 6 10 11 11 10 11 11 11 13 13 13 13 13 13 14 13 13 13 12 13 13 13 13 12 12 12 12 13 14 14 14 15 16 17 17 18 18 16 17 17 18 17 18 19 19 19 19 19 19 19 18 18 18 17 16 16 14 12 10 9 8 6 6 6 6 6 7 8 11 21 23 24 25 26 25 26 26 27 28 26 26
9 9 7 6 6 7 10 10 10 11 11 11 11 13 14 13 13 13 14 13 13 13 13 13 13 13 13 13 12 12 13 13 13 13 13 13 14 15 16 17 18 17 17 17 17 16 17 17 18 18 19 19 19 19 19 18 18 17 17 16 14 13 11 6 6 5 6 6 5 7 7 8 20 23 23 25 25 24 25 25 27 27 27 28 28
11 10 8 7 6 6 6 8 11 11 11 11 11 11 12 12 12 13 14 13 13 13 13 13 13 13 13 13 13 12 12 13 13 13 13 13 15 16 17 17 17 16 17 16 16 16 16 17 17 18 18 19 19 19 19 19 18 17 17 15 14 13 12 7 6 5 5 5 5 5 6 10 22 23 24 26 27 26 25 26 27 28 28 28 28
10 9 9 7 8 6 6 5 7 11 10 11 11 11 12 12 11 12 12 12 13 13 13 13 13 12 12 13 12 11 11 12 13 13 14 14 15 15 15 16 17 16 16 16 16 16 16 17 17 18 18 18 18 18 18 18 18 17 16 16 15 13 12 9 6 5 5 5 4 5 6 8 20 24 25 26 28 28 28 27 28 28 27 26 27
9 10 9 8 7 7 7 6 6 6 6 8 10 10 12 12 12 11 12 12 12 12 12 13 12 11 11 10 9 10 11 12 12 13 13 14 13 12 15 16 16 16 17 16 16 16 16 17 17 18 18 18 18 18 18 18 17 17 16 16 15 14 12 10 6 6 6 5 5 5 7 15 23 24 26 27 28 28 29 28 27 27 26 26 26
9 9 9 8 9 7 7 6 6 5 6 4 5 8 12 12 12 12 12 12 11 11 11 11 12 11 11 10 9 9 9 10 10 11 11 10 10 11 14 15 17 17 16 16 16 16 17 17 17 18 18 18 18 18 18 17 17 16 16 15 13 12 13 8 6 6 6 5 5 6 9 20 22 25 26 28 30 29 28 27 27 26 26 26 26
7 8 8 8 8 7 6 6 5 6 5 5 5 6 10 12 11 12 12 12 12 11 11 12 12 12 11 10 10 9 9 9 11 8 9 9 9 8 12 13 16 17 17 16 15 16 17 17 17 17 18 18 18 18 17 17 16 16 15 14 13 13 8 6 6 7 6 7 7 5 13 20 24 24 25 28 30 28 27 26 26 27 26 26 26
5 7 8 7 8 7 7 5 5 6 6 6 5 6 8 11 10 11 12 12 11 12 11 12 12 11 11 10 9 6 6 6 7 6 9 6 8 11 12 14 16 16 16 15 16 17 18 18 18 18 18 18 17 17 16 16 16 15 14 12 13 9 6 6 7 6 6 6 7 5 16 20 23 25 27 27 30 28 27 26 25 24 23 25 26
7 7 7 8 8 7 8 8 6 7 6 5 5 6 5 8 7 7 7 9 10 11 9 7 8 7 10 8 6 5 5 5 6 7 6 6 7 9 12 13 16 15 15 16 17 17 17 18 17 17 17 15 13 8 8 12 15 14 13 13 9 6 7 7 7 6 6 5 6 10 15 23 24 27 28 29 28 27 25 23 22 25 25 25 23
8 7 7 9 8 7 8 8 8 8 7 6 6 6 7 5 7 7 6 8 9 9 7 8 6 7 6 6 6 5 5 4 5 7 7 8 7 8 11 12 13 13 14 16 16 17 18 18 18 16 15 13 8 6 6 6 7 11 11 9 7 6 7 8 7 6 6 5 6 12 16 22 23 24 26 28 28 27 26 25 23 24 24 25 24
9 9 8 8 8 8 9 8 9 8 8 6 6 6 6 6 6 6 6 6 7 6 7 7 7 6 6 6 6 6 5 5 6 10 9 7 7 8 10 11 13 12 14 10 12 15 17 17 16 14 9 6 6 6 6 6 6 6 7 6 6 7 7 6 6 6 5 4 6 14 18 22 24 25 26 26 25 24 23 24 24 24 24 23 23
8 6 6 8 10 9 8 9 9 8 8 7 7 6 7 5 6 5 6 5 6 6 6 7 7 7 7 6 6 6 6 5 5 5 5 6 6 5 5 5 5 5 8 7 7 7 8 7 7 7 6 7 7 6 6 6 6 6 6 6 6 6 6 6 6 6 5 5 8 15 17 21 23 24 26 26 27 26 25 24 24 23 23 22 22
5 7 9 8 9 9 9 8 9 9 9 8 8 8 8 7 7 6 6 7 7 7 6 6 6 7 7 7 6 6 6 6 5 5 5 6 6 6 5 5 4 5 5 6 6 6 6 6 7 7 6 6 7 6 6 6 6 6 6 6 6 6 6 6 6 6 6 5 6 15 15 18 21 22 24 24 25 25 24 25 23 22 22 21 21
8 9 8 7 8 8 9 9 9 9 10 9 8 7 7 7 8 8 7 7 7 7 7 7 7 7 7 7 8 6 6 6 6 5 6 5 6 6 6 6 5 5 5 6 7 6 6 7 7 6 5 7 7 7 7 6 5 6 7 6 6 7 6 6 6 5 5 6 5 13 14 15 19 23 24 23 23 25 24 23 22 21 22 21 21
7 10 9 8 8 9 9 9 9 9 9 9 9 8 8 8 8 8 8 9 8 7 7 8 7 8 7 7 7 7 7 7 6 6 6 5 6 6 6 6 6 5 5 6 7 6 7 7 8 7 7 6 7 7 7 6 6 5 7 6 6 6 6 6 5 5 6 6 7 8 13 13 19 20 22 22 22 24 23 22 21 21 21 20 20
10 10 9 10 10 9 8 10 9 11 9 9 9 8 8 8 8 8 8 9 8 7 7 8 8 7 7 8 7 8 6 7 7 6 5 6 5 6 6 6 6 5 6 6 6 7 7 7 7 8 7 7 6 7 7 6 5 4 6 7 6 6 6 6 6 6 7 6 6 11 13 14 17 20 21 21 21 22 22 21 19 19 20 20 19
14 11 10 11 9 10 10 11 11 10 9 9 8 8 9 9 9 9 8 8 8 8 8 8 8 8 7 8 8 8 8 8 7 6 7 6 6 5 6 6 6 5 6 7 6 7 7 7 7 7 8 7 7 5 7 7 6 5 4 6 7 6 5 6 6 6 5 6 6 9 18 14 17 18 19 18 20 23 22 20 20 18 19 19 18
10 12 12 11 10 10 12 11 11 9 8 9 9 9 9 9 9 8 8 8 8 8 8 7 8 8 8 10 9 9 9 8 8 8 6 7 7 6 6 6 6 5 6 7 6 7 6 6 7 7 7 8 7 5 6 7 6 6 4 6 6 5 6 5 6 6 7 6 6 7 10 16 13 15 19 21 20 19 19 19 19 18 18 17 17
12 14 13 10 10 13 13 12 11 10 10 10 9 9 9 9 9 8 8 8 8 7 8 8 8 8 8 10 10 9 9 9 10 9 9 8 8 8 7 7 6 5 6 7 7 7 7 6 6 7 7 7 7 6 5 7 7 6 4 6 6 5 5 5 6 6 6 6 6 6 7 8 14 15 13 18 17 16 16 18 18 18 16 16 16
12 13 11 11 14 13 13 13 12 10 12 12 10 9 8 8 8 9 8 8 8 7 8 8 8 8 9 10 10 10 9 9 9 11 10 9 9 9 8 8 7 6 6 7 8 8 8 8 7 6 7 7 8 7 5 6 7 6 6 6 5 6 4 4 5 5 6 6 6 5 6 7 7 12 16 11 14 15 16 16 17 16 17 16 16
11 8 9 13 12 9 9 9 11 12 12 11 10 9 9 8 8 8 8 9 8 8 8 8 8 8 9 10 11 10 9 9 10 9 9 9 9 9 9 9 7 8 8 8 9 8 9 9 8 7 6 8 8 7 7 6 5 5 6 5 5 5 4 6 5 5 4 6 5 6 6 7 7 7 8 15 14 11 14 14 15 15 15 16 15
7 7 13 14 11 11 10 9 12 12 11 11 11 10 8 8 8 8 8 9 8 8 8 8 8 8 8 9 11 10 11 10 10 10 9 9 9 9 8 8 8 8 9 8 9 8 9 10 9 9 7 7 8 7 7 7 7 6 5 5 5 5 6 5 5 6 6 6 6 6 6 6 6 6 7 6 10 16 8 13 12 14 14 14 14
12 12 10 9 12 11 11 11 11 13 13 12 10 10 9 8 8 8 7 8 8 8 8 8 8 8 8 8 10 10 11 10 10 10 9 9 10 9 9 7 9 8 7 8 8 9 9 9 8 10 11 8 9 8 6 7 6 7 5 5 5 5 5 5 6 6 5 5 6 6 6 6 6 6 6 6 6 9 16 11 12 11 14 13 13
12 10 11 10 11 12 12 13 14 15 13 12 10 7 7 8 8 8 9 8 8 8 8 8 8 8 8 8 9 10 11 11 11 11 10 10 10 10 9 10 10 9 9 8 8 6 9 9 8 6 9 11 10 10 8 7 7 7 6 7 5 5 6 5 5 5 4 7 5 6 6 6 6 6 6 7 6 7 10 15 16 15 11 11 11
9 10 10 12 13 12 12 13 11 12 12 12 11 9 7 7 7 8 8 9 9 8 7 8 8 8 8 9 9 10 10 12 12 11 10 11 11 11 11 11 10 9 8 8 8 8 6 8 9 5 6 9 10 11 10 8 7 7 7 6 5 5 5 5 5 4 5 5 5 6 5 5 6 6 6 6 6 7 7 11 15 13 14 12 13
8 9 9 9 8 9 9 10 10 11 10 10 8 7 6 5 5 6 7 8 7 7 7 8 8 8 9 10 10 9 8 10 12 13 11 10 9 9 10 12 11 9 9 9 9 9 8 6 9 9 5 4 8 9 10 9 9 8 7 6 6 6 4 5 5 5 5 4 4 4 4 6 5 5 6 6 6 6 7 7 6 7 9 18 16
8 8 9 8 9 8 8 8 9 10 7 7 7 7 6 7 7 3 5 7 7 7 7 7 7 8 8 9 9 9 9 10 10 11 11 11 9 9 10 10 11 11 10 9 9 10 12 10 9 11 9 8 6 8 11 11 10 10 8 7 6 5 5 5 6 4 3 4 4 4 5 4 5 5 6 5 5 6 6 5 6 6 6 10 15
6 7 9 10 11 12 10 12 9 7 9 8 8 9 9 7 6 9 9 6 7 6 7 6 6 6 8 8 9 9 10 10 8 10 10 11 11 11 11 11 10 11 12 14 15 14 12 11 10 8 12 11 8 8 9 12 14 9 7 7 7 5 4 5 5 4 3 2 3 4 4 5 5 5 4 4 5 5 4 5 5 5 5 5 7
8 8 11 12 11 9 11 10 7 8 9 10 10 9 9 10 11 11 6 6 5 7 7 7 7 6 6 7 7 7 9 10 9 8 7 11 11 12 13 13 12 11 8 4 3 8 13 13 12 9 6 11 10 11 12 13 5 9 11 6 5 5 4 5 4 3 2 2 2 4 3 4 5 4 3 4 5 4 4 4 5 5 4 5 5
10 12 11 9 9 9 9 8 8 9 8 8 8 9 6 4 5 3 6 3 1 1 1 2 3 5 6 6 6 6 6 6 8 8 9 8 9 12 13 12 14 13 12 11 11 10 10 14 16 15 12 6 8 9 12 6 10 8 8 9 4 3 1 2 2 2 1 1 1 3 3 4 4 3 3 4 5 4 3 4 4 3 4 4 4
7 6 7 10 8 9 8 8 9 8 8 7 7 4 4 3 3 3 3 3 3 2 2 2 2 2 6 4 5 5 5 5 5 7 6 11 10 9 9 11 12 12 13 14 15 14 13 11 10 10 13 12 8 11 11 5 11 17 7 2 5 3 3 5 2 1 0 1 1 2 2 4 4 4 3 5 4 4 3 3 3 3 3 3 3
9 9 10 10 9 11 10 9 8 9 7 7 7 5 6 4 5 5 4 3 3 2 2 2 3 3 3 5 6 3 4 4 4 4 6 8 10 9 9 11 12 11 10 12 14 16 17 16 16 15 17 17 14 11 12 7 12 4 10 10 3 2 6 6 8 1 1 2 1 2 1 3 5 4 5 4 3 3 4 4 3 3 3 2 2
9 9 8 9 7 7 7 7 6 7 8 8 8 8 8 8 6 6 4 4 5 4 9 10 7 8 9 3 3 5 5 5 5 5 4 5 8 11 11 9 10 12 12 11 11 11 14 16 17 17 17 15 18 14 14 7 11 11 5 1 2 7 11 9 9 6 1 2 3 3 3 3 3 4 4 5 5 5 3 4 3 4 3 2 1
9 5 5 6 5 6 7 8 8 8 7 7 8 8 7 7 10 10 9 10 10 7 3 3 6 6 4 5 5 3 4 5 5 6 5 6 7 9 11 13 12 11 11 11 12 15 15 16 15 14 16 13 12 15 17 13 8 10 6 3 2 4 13 15 8 7 5 3 5 4 4 4 4 4 5 5 5 5 4 4 4 4 3 3 2
5 4 5 5 7 8 8 9 8 8 7 7 8 9 10 8 8 8 8 9 10 10 7 6 4 5 6 5 4 5 4 5 5 6 6 7 8 9 10 11 12 12 12 13 14 13 11 11 12 11 8 10 14 15 17 14 18 14 10 7 3 8 14 7 15 14 9 12 8 3 3 6 4 5 6 7 7 6 6 5 5 4 4 3 3
5 7 7 7 7 6 7 6 7 7 6 8 9 8 9 10 10 9 9 8 7 6 4 4 5 4 5 4 5 5 5 5 6 5 5 6 8 9 10 11 12 12 12 11 12 12 14 14 13 11 12 12 12 8 10 14 13 12 12 7 6 7 9 1 8 3 5 7 4 10 8 2 3 4 6 5 5 5 5 6 5 5 5 4 4
4 4 4 4 5 5 6 7 7 7 7 8 9 9 9 8 9 9 10 8 5 3 4 5 5 5 6 6 5 5 5 5 6 5 5 7 8 8 9 12 12 11 10 11 11 12 12 13 14 15 14 14 11 10 13 12 11 8 10 7 8 8 6 3 6 5 2 4 10 14 11 13 12 8 6 7 6 5 5 5 5 5 5 5 5
2 3 4 5 5 6 6 8 7 7 7 9 9 10 8 8 10 10 11 10 8 7 6 6 5 5 7 7 7 6 6 6 5 6 7 7 7 8 9 10 10 10 10 10 11 12 12 12 12 13 12 13 10 11 8 7 8 6 8 8 10 14 15 13 14 11 8 6 4 7 9 11 9 8 8 6 6 5 5 5 6 5 5 5 5
Wind_Direction
197 172 206 182 139 123 118 115 111 109 109 109 104 101 97 91 87 86 83 81 80 79 75 74 73 73 73 73 75 83 88 90 87 86 88 90 89 88 85 81 76 74 75 77 82 85 85 87 85 83 80 78 78 79 79 81 77 73 72 72 75 75 74 73 72 70 64 71 77 76 75 74 71 69 72 71 71 66 63 63 64 65 63 67 68
165 176 176 162 143 129 126 120 117 114 110 105 102 101 99 94 91 89 86 84 82 81 79 78 77 77 77 76 79 85 90 91 93 95 87 80 78 80 84 82 81 82 83 79 81 83 88 87 85 82 80 79 80 80 81 84 84 78 75 76 77 77 75 73 72 70 71 71 75 77 76 77 77 72 70 70 72 69 66 67 66 65 65 66 66
138 148 167 156 135 137 130 124 117 115 110 103 101 102 99 95 90 88 87 85 85 84 84 82 83 82 79 80 81 83 88 89 91 90 84 80 84 87 85 86 86 83 82 84 85 91 90 85 84 80 78 79 81 84 86 85 85 81 79 81 81 79 75 69 65 63 64 67 71 72 72 77 78 76 76 73 72 70 69 70 69 68 69 67 68
140 153 154 143 142 142 132 125 116 112 108 106 108 107 103 99 95 92 91 91 89 87 85 84 83 84 82 85 86 87 88 91 90 89 90 94 94 91 89 87 85 86 88 89 92 93 86 85 82 80 77 79 84 91 90 87 86 86 83 84 82 78 73 70 66 63 60 68 72 59 67 68 74 79 79 76 74 71 67 68 68 68 68 67 66
144 149 146 143 147 137 128 123 122 120 117 112 112 110 106 103 101 100 100 98 94 91 87 84 85 85 86 86 86 90 92 93 90 86 89 91 91 93 94 90 87 85 89 96 97 93 89 86 83 78 75 78 82 91 93 90 88 87 86 84 79 74 68 63 59 56 54 55 53 55 58 76 78 79 80 79 78 76 73 71 70 70 70 70 69
147 148 148 148 142 136 141 133 125 123 122 119 114 111 111 107 105 104 101 98 96 94 90 88 88 87 86 87 90 92 93 91 89 91 91 90 94 94 93 90 87 87 92 96 97 95 90 86 81 75 72 78 85 91 93 91 88 87 88 85 80 72 63 58 54 49 43 39 43 52 55 63 80 82 83 82 82 80 78 77 77 76 75 74 74
145 149 149 149 146 148 150 136 130 129 128 124 121 118 113 108 105 103 103 101 99 98 95 94 92 91 89 91 93 94 98 95 91 92 96 97 94 89 89 87 87 88 94 97 97 92 87 83 79 73 73 78 83 85 85 88 90 84 79 80 76 67 63 58 53 49 44 37 38 40 55 65 71 80 81 81 80 77 76 76 76 74 70 68 67
137 146 149 146 147 154 146 140 135 134 133 129 125 125 123 118 111 108 107 106 103 101 101 100 100 99 97 98 102 102 93 95 100 100 97 95 94 93 90 89 88 91 97 99 98 91 89 84 80 77 77 81 84 86 85 85 79 76 74 71 67 65 62 59 53 50 48 48 40 37 35 37 55 73 81 81 80 80 80 81 80 75 71 69 65
142 148 145 145 154 152 146 144 142 139 138 134 130 131 129 124 120 115 112 108 106 104 103 103 104 105 103 100 101 102 102 91 85 91 90 92 94 96 96 93 92 92 96 100 100 91 87 82 78 80 83 86 87 87 84 80 78 78 77 72 70 66 62 57 51 45 44 45 50 57 60 64 68 78 84 83 79 73 71 70 70 72 73 72 73
144 139 144 148 153 156 148 150 145 144 141 139 136 137 136 130 124 120 115 112 111 110 107 106 106 106 106 104 101 101 100 99 94 92 98 95 93 96 97 94 93 93 97 101 101 94 84 77 76 80 84 85 86 86 85 84 80 78 77 75 71 67 63 60 56 48 48 45 50 60 71 78 77 84 89 85 78 77 76 75 77 76 73 71 70
142 142 142 149 155 153 152 146 145 145 143 141 142 139 137 133 127 124 119 116 115 113 111 108 107 106 106 105 102 103 103 101 104 104 101 99 97 95 91 92 93 96 99 101 102 95 84 76 78 80 83 85 85 83 83 84 83 80 77 76 73 71 68 64 58 50 49 51 53 60 78 78 78 84 86 84 84 81 76 74 72 70 69 70 67
142 144 148 151 153 151 148 145 147 145 144 144 142 141 140 137 133 129 126 122 119 115 112 110 108 106 106 105 102 102 103 100 101 102 99 98 96 93 92 93 95 97 98 97 97 93 88 78 78 81 82 86 86 86 85 86 86 83 81 79 75 70 68 61 53 55 53 52 57 61 64 80 80 84 85 84 81 80 79 76 73 70 68 69 68
145 149 150 149 149 149 148 150 145 144 147 146 145 143 142 139 135 132 129 126 122 119 116 114 111 109 107 105 103 100 104 105 102 101 99 99 97 94 93 91 94 99 101 102 100 95 89 78 73 74 78 82 88 91 90 88 86 85 84 78 74 74 69 62 61 58 57 58 65 66 73 74 85 84 82 79 81 75 70 71 69 67 64 64 64
148 152 152 150 149 150 149 145 144 144 146 145 146 144 144 142 140 136 132 127 124 123 121 119 118 116 114 110 108 103 102 110 112 112 110 105 100 98 96 96 98 101 103 104 101 97 90 77 75 73 74 80 83 82 80 79 75 71 68 66 59 50 42 57 54 53 54 58 70 75 83 89 91 86 82 82 77 75 74 70 67 63 63 64 63
151 153 151 147 149 150 149 147 147 145 144 146 146 148 148 146 145 141 136 130 129 127 126 123 122 121 119 118 113 109 106 104 107 107 109 110 108 104 105 103 102 104 105 104 100 91 90 77 75 74 76 78 79 79 77 75 73 69 65 59 54 51 47 50 46 47 51 54 63 75 79 87 87 83 83 79 77 75 72 70 67 65 63 62 62
152 152 148 149 148 147 148 153 150 151 150 148 149 150 150 148 148 144 140 136 133 133 129 127 126 124 122 119 117 115 112 109 108 108 107 108 109 107 107 106 107 106 106 105 106 99 87 78 76 78 80 81 81 81 79 76 72 67 65 61 54 50 47 48 48 47 48 49 55 71 81 89 89 87 84 82 79 76 74 74 72 68 66 66 66
150 150 149 154 150 141 144 149 156 156 153 150 151 152 148 149 149 147 144 140 138 136 134 130 128 126 123 121 118 114 114 115 113 113 112 113 114 112 111 111 111 112 111 112 107 97 84 81 81 83 84 83 82 81 79 76 72 69 64 59 53 46 43 41 45 37 42 50 57 63 72 80 88 88 86 84 80 76 72 71 72 73 71 71 70
152 156 156 157 149 154 153 149 146 150 153 151 154 153 148 150 150 148 143 142 141 138 135 132 128 123 118 114 112 115 116 116 114 116 118 116 112 115 117 116 117 116 114 111 111 100 88 86 86 86 85 83 81 81 78 76 72 68 64 61 55 47 38 36 42 35 38 49 60 68 82 89 90 90 88 84 80 78 76 73 73 73 73 72 71
154 161 159 160 157 153 155 153 154 134 137 142 151 152 148 151 150 150 146 145 141 137 135 127 121 119 117 116 114 105 100 102 108 110 112 116 117 115 117 116 118 117 113 112 112 98 91 87 85 86 85 83 81 78 76 74 71 68 66 62 58 53 44 37 34 40 44 49 57 78 94 97 96 92 91 89 87 83 81 78 76 75 73 73 71
160 159 159 167 158 150 146 157 155 150 135 147 146 150 150 151 153 153 148 143 141 136 128 124 122 119 116 112 109 102 96 97 102 105 108 105 101 107 111 114 117 119 117 115 107 97 91 87 84 84 83 82 79 77 74 73 71 68 65 62 59 53 44 36 36 38 45 54 59 66 96 96 90 92 92 92 91 87 84 84 82 77 74 74 73
166 169 166 170 168 158 161 157 157 158 155 149 152 150 156 152 154 154 148 145 141 134 125 119 118 120 119 117 110 106 110 110 105 106 98 100 106 111 118 122 122 121 119 114 107 99 94 89 86 84 82 78 74 71 69 71 69 68 64 60 60 54 43 41 38 39 42 54 69 73 92 91 95 91 89 87 85 86 84 80 80 79 80 75 73
171 173 180 170 169 171 168 170 167 166 159 153 156 156 144 156 155 155 148 144 137 129 127 131 129 128 127 123 121 120 120 121 121 116 113 110 111 120 125 126 127 122 123 119 112 103 97 94 89 86 84 78 71 69 63 61 63 64 62 62 59 56 45 44 41 39 35 43 73 85 90 100 97 94 90 89 89 89 86 83 81 81 81 82 78
176 177 183 178 176 172 176 174 173 168 161 158 158 160 161 147 156 154 147 145 143 138 137 137 140 141 138 131 130 130 130 128 130 129 125 116 115 122 126 127 125 125 124 121 114 102 99 97 92 88 82 74 67 69 66 64 60 57 60 57 59 53 53 47 44 43 40 46 82 92 97 93 93 92 92 89 87 85 83 84 83 82 80 79 82
183 180 176 179 175 179 180 178 176 171 165 164 155 158 164 158 156 158 154 146 148 146 145 147 148 148 144 139 137 135 129 126 122 120 117 115 110 109 117 121 124 128 122 98 79 91 95 94 93 91 82 76 76 66 69 64 60 57 60 59 60 54 54 48 47 39 39 28 91 96 91 94 94 94 91 88 88 87 86 84 84 83 82 81 80
179 167 171 182 179 179 177 180 176 174 171 168 163 166 164 157 162 156 151 146 154 153 154 154 157 152 148 144 143 136 130 129 131 123 118 121 117 112 112 113 117 109 93 95 98 90 89 88 81 76 80 85 80 67 68 70 61 62 60 58 62 59 55 49 45 44 29 29 84 94 100 98 97 93 91 92 93 94 90 85 84 83 82 81 80
151 181 188 181 182 179 178 178 177 178 178 176 174 169 168 170 148 158 158 160 163 160 162 161 161 159 152 148 138 134 134 133 136 132 129 128 124 122 119 119 114 110 100 103 104 100 94 93 89 84 79 78 79 76 64 68 74 67 65 57 60 61 56 50 45 41 30 32 67 95 101 98 95 95 95 96 93 92 94 93 87 86 84 83 82
187 197 187 188 181 177 179 173 180 178 183 178 174 170 180 175 174 170 163 171 170 165 170 168 166 163 156 152 144 146 144 143 141 143 140 138 135 137 134 136 130 115 107 113 108 106 104 99 91 84 83 88 82 76 71 64 61 76 73 63 61 62 56 53 47 39 45 46 24 90 92 98 96 94 97 98 100 98 92 90 91 87 86 83 82
194 199 196 194 189 186 181 176 179 179 187 180 177 179 182 176 180 173 177 176 173 176 172 174 167 167 163 159 151 151 152 151 150 150 151 142 146 144 143 137 132 116 113 113 114 110 108 103 103 97 87 75 86 84 79 71 61 64 83 71 65 66 58 55 44 42 51 39 31 44 94 85 95 101 101 101 103 102 97 94 91 90 88 87 85
205 202 196 201 203 191 185 186 181 181 188 184 185 182 182 179 179 181 184 174 180 181 176 169 172 169 165 161 156 152 155 154 155 158 151 152 148 149 150 149 137 134 127 118 118 117 113 115 114 115 113 108 100 94 90 78 68 58 77 84 74 70 63 54 46 38 46 45 31 37 48 86 97 101 101 105 102 96 98 99 95 94 91 90 86
208 201 197 204 200 196 195 194 186 186 186 185 189 186 182 183 185 186 187 177 184 181 175 175 176 170 168 169 167 160 163 162 160 159 157 156 155 152 153 155 143 144 135 130 130 121 124 122 117 115 113 108 98 93 98 90 74 60 53 85 77 68 65 63 48 43 45 35 36 41 37 58 95 100 103 100 98 102 103 98 98 97 93 89 90
197 204 205 203 196 195 202 197 191 187 188 191 190 191 184 186 187 187 186 186 184 180 179 181 178 180 170 172 172 171 166 166 164 163 164 159 160 159 163 156 144 149 143 133 133 126 122 122 127 125 120 115 110 111 104 95 83 65 40 61 70 75 67 60 57 46 41 35 33 40 40 36 44 97 101 100 100 99 98 100 98 97 98 95 92
197 207 204 193 190 200 200 196 191 187 190 197 191 195 192 188 184 187 190 188 184 184 182 184 185 183 174 174 177 176 173 171 168 168 166 165 166 169 166 162 157 154 146 138 130 125 120 113 110 113 117 112 108 100 92 103 94 84 71 68 64 68 56 61 63 50 46 38 36 36 46 38 38 40 87 108 107 104 103 103 104 102 96 92 89
210 205 194 186 196 196 197 198 190 189 194 197 194 197 194 189 184 188 187 186 188 185 186 187 187 186 180 176 179 179 178 172 176 171 170 170 169 169 171 170 158 154 144 133 123 122 119 117 111 115 111 111 108 99 90 87 93 91 86 76 76 61 49 47 59 50 52 47 35 42 43 44 40 38 33 52 104 103 107 106 106 101 101 101 98
203 198 180 197 196 193 195 193 195 193 197 197 192 194 195 192 189 187 185 186 189 189 190 189 188 189 185 182 180 181 182 179 175 177 171 169 171 174 175 169 160 154 145 141 136 137 132 129 130 123 122 122 120 120 116 101 88 83 79 77 71 67 50 60 43 47 43 53 37 45 41 45 45 43 38 37 35 89 107 107 104 106 106 103 100
198 195 197 198 187 192 188 196 195 197 194 197 194 196 191 191 188 190 189 188 188 192 190 189 190 191 187 188 184 182 185 181 180 176 178 170 170 173 176 173 157 154 152 153 143 143 140 141 143 132 131 124 122 118 112 107 104 91 79 76 64 69 66 61 50 40 42 49 53 42 44 43 48 45 46 36 40 21 83 117 107 116 112 106 102
203 202 202 186 194 194 190 194 192 198 197 197 193 192 190 190 190 189 189 191 191 192 191 191 190 189 191 191 190 183 185 186 180 180 180 176 172 174 176 160 158 155 154 151 148 150 147 142 149 145 136 134 128 122 116 112 106 98 85 74 69 62 64 62 56 57 39 56 54 49 43 48 44 50 47 47 34 31 27 62 118 123 116 111 108
205 197 195 191 197 196 191 193 193 197 197 198 193 186 180 187 191 191 192 191 195 196 192 191 190 190 191 195 193 189 186 186 187 182 183 182 176 173 168 165 163 162 159 157 152 152 153 146 147 151 143 140 137 126 119 114 105 92 84 78 62 67 47 64 57 51 50 59 53 50 51 46 46 47 45 51 36 37 24 33 43 45 63 99 110
209 202 195 191 196 192 193 196 195 195 194 196 195 186 181 179 185 191 191 195 198 196 196 191 194 193 192 196 196 194 191 187 188 187 187 185 182 174 166 164 163 161 157 156 155 148 148 146 140 138 147 140 138 137 130 118 110 101 87 78 74 65 58 64 61 47 56 62 55 53 51 46 54 43 49 44 47 37 34 29 33 28 47 70 71
207 203 195 199 192 191 192 198 192 193 195 191 188 181 172 175 172 176 189 200 199 197 191 197 196 193 197 196 195 195 195 198 192 190 189 184 176 166 164 162 160 159 156 154 148 143 143 156 146 136 123 119 136 131 126 120 108 98 88 75 72 64 58 68 63 63 54 62 68 63 56 49 54 47 46 46 41 44 42 35 34 36 24 38 39
201 194 194 193 197 192 193 195 196 189 182 177 168 177 176 182 180 179 200 208 200 195 201 198 191 198 198 196 197 196 192 198 198 191 184 174 166 163 161 162 160 155 154 154 158 158 158 149 147 137 133 124 118 128 130 119 101 90 86 76 66 66 63 61 70 63 63 61 71 68 70 59 59 55 49 46 50 52 49 40 43 36 31 27 35
201 192 192 197 196 194 185 199 193 177 173 175 180 178 186 191 199 197 201 190 195 197 200 201 199 197 192 194 193 195 191 191 194 192 181 171 166 162 161 167 164 167 168 173 170 166 155 146 141 143 145 139 137 145 138 128 121 96 83 81 69 54 62 66 68 65 62 69 79 88 84 79 70 66 55 57 65 62 57 52 50 45 38 36 23
212 195 196 200 197 189 194 196 174 183 189 187 184 187 192 197 195 204 188 165 180 185 203 205 202 195 193 191 190 187 187 185 182 184 182 178 172 169 167 169 166 167 161 134 143 151 150 149 148 140 161 151 154 164 158 133 123 143 139 120 74 66 48 55 59 57 73 78 97 101 94 103 93 86 73 76 70 68 61 61 57 53 45 45 31
203 198 200 191 191 191 196 188 186 185 194 188 177 193 193 190 185 179 172 158 155 181 171 180 180 190 199 197 193 189 185 185 175 179 167 177 181 173 174 173 175 165 156 154 153 161 169 164 164 157 156 163 149 171 177 182 130 127 112 100 151 124 111 51 20 53 61 70 87 100 115 109 107 102 103 93 87 80 73 70 73 68 64 53 44
204 201 195 195 192 195 193 187 186 188 187 189 187 173 145 102 64 97 104 113 179 128 88 87 156 176 205 206 211 197 191 185 180 167 181 169 171 185 172 169 175 174 168 163 166 170 171 173 171 163 149 147 173 184 195 188 154 138 150 177 155 124 125 226 155 267 6 195 122 135 139 129 125 118 113 115 116 107 98 95 93 96 81 75 55
204 199 194 194 193 197 194 184 179 183 180 171 165 143 120 95 80 56 61 74 50 89 130 232 211 212 208 209 211 205 199 194 191 179 172 176 168 172 179 174 170 173 173 171 174 176 175 176 175 167 172 165 171 179 197 188 184 207 132 132 116 216 212 144 132 67 129 140 230 178 176 148 143 146 139 134 119 128 129 113 116 100 109 98 85
208 206 197 198 189 186 175 174 172 177 176 173 166 158 167 164 153 150 169 191 206 182 205 206 197 204 210 185 193 201 201 199 192 195 191 176 181 174 173 179 180 170 174 176 177 176 182 179 182 179 181 184 167 170 183 203 194 205 226 359 159 175 157 162 137 182 132 244 188 191 194 187 163 147 152 147 148 152 148 140 130 133 132 130 123
216 181 184 191 186 173 176 178 182 183 177 172 167 164 168 178 186 191 192 196 206 223 216 203 196 214 196 202 209 210 214 205 206 195 196 200 188 186 181 177 179 182 179 178 183 187 188 190 185 188 189 178 168 172 179 181 184 226 220 205 72 78 134 140 186 99 168 224 196 185 207 207 178 162 168 170 163 155 162 153 146 144 149 144 137
186 167 184 179 183 182 178 184 183 180 177 166 172 177 178 183 188 198 198 202 206 213 196 207 195 182 197 207 203 222 224 225 219 209 200 201 203 197 193 187 186 188 182 188 188 189 188 191 194 195 188 189 185 180 183 174 179 201 197 189 105 131 161 155 156 170 161 169 198 233 220 194 191 192 183 176 174 170 163 164 156 156 152 155 152
178 188 189 190 187 183 180 176 180 174 174 172 175 186 186 184 189 190 205 216 209 215 195 198 185 181 196 188 194 212 225 231 228 222 213 211 209 206 198 196 193 193 190 190 187 183 184 181 184 187 193 197 200 201 172 184 193 188 170 185 143 153 171 106 162 84 147 147 177 188 183 184 224 222 199 187 185 176 174 170 170 163 164 161 162
208 199 193 175 185 177 180 178 186 178 175 179 182 187 188 180 189 197 205 208 201 203 172 196 193 181 204 196 197 202 212 224 232 229 222 218 212 205 199 195 194 191 189 189 180 180 183 186 191 195 194 193 195 188 194 192 192 183 189 148 145 142 132 122 174 158 79 176 166 190 189 177 189 204 184 189 187 188 183 180 175 171 170 164 165
217 196 194 190 187 185 183 187 188 179 178 183 183 190 189 187 195 196 202 204 198 188 188 202 191 194 203 200 198 202 196 210 214 221 220 218 216 208 199 196 191 184 185 187 184 180 184 189 192 195 197 197 195 193 185 189 188 178 167 171 178 171 174 178 181 185 165 152 117 184 177 196 191 162 202 182 180 188 185 181 180 185 174 174 171